Madison, WI

5:51 AM CDT on June 26, 2017 (GMT -0500)
Dane County Regional-Truax

Weather History for KMSN - April, 2013

Change the Weather History Date:

Thursday, April 18, 2013

  Actual Average Record
Temperature  
Mean Temperature 49 °F 48 °F  
Max Temperature 60 °F 59 °F 87 °F (1977)
Min Temperature 37 °F 37 °F 18 °F (1983)
Degree Days  
Heating Degree Days 16 18  
Month to date heating degree days 441 377  
Since 1 July heating degree days 6781 6826  
Cooling Degree Days 0 0  
Month to date cooling degree days 0 0  
Year to date cooling degree days 0 0  
Moisture  
Dew Point 45 °F    
Average Humidity 90    
Maximum Humidity 100    
Minimum Humidity 79    
Precipitation  
Precipitation 0.50 in 0.12 in 2.15 in (1880)
Month to date precipitation 5.76 2.02  
Year to date precipitation 13.45 6.90  
Snow  
Snow 0.00 in 0.10 in 3.40 in (1912)
Month to date snowfall 0.3 2.0  
Since 1 July snowfall 70.6 50.1  
Snow Depth 0.00 in    
Sea Level Pressure  
Sea Level Pressure 29.56 in    
Wind  
Wind Speed 10 mph (East)    
Max Wind Speed 22 mph    
Max Gust Speed 33 mph    
Visibility 6 miles    
Events Rain    
T = Trace of Precipitation, MM = Missing Value Source: NWS Daily Summary

Daily Weather History Graph

Daily Weather History Graph

Search for Another Location

Airport or City:

Trip Planner

Search our weather history database for the weather conditions in past years. The results will help you decide how hot, cold, wet, or windy it might be!

Date:

Astronomy

Apr. 18, 2013 Rise Set
Actual Time 6:10 AM CDT 7:43 PM CDT
Civil Twilight 5:40 AM CDT 8:13 PM CDT
Nautical Twilight 5:04 AM CDT 8:50 PM CDT
Astronomical Twilight 4:25 AM CDT 9:28 PM CDT
Moon 12:20 PM CDT (4/18) 2:00 AM CDT (4/18)
Length of Visible Light 14h 33m
Length of Day
13h 33m
First Quarter, 52% of the Moon is Illuminated
Apr 18
First Quarter
Apr 25
Full
May 2
Last Quarter
May 9
New
May 17
First Quarter

Hourly Weather History & Observations

Time (CDT) Temp. Windchill Dew Point Humidity Pressure Visibility Wind Dir Wind Speed Gust Speed Precip Events Conditions
12:13 AM 42.8 °F 37.0 °F 42.8 °F 100% 29.88 in 4.0 mi ENE 10.4 mph - 0.05 in Rain Rain
12:20 AM 42.8 °F 37.0 °F 42.8 °F 100% 29.87 in 4.0 mi ENE 10.4 mph - 0.07 in Rain Light Rain
12:53 AM 43.0 °F 38.8 °F 41.0 °F 93% 29.86 in 7.0 mi ENE 6.9 mph - 0.12 in Rain Light Rain
1:30 AM 42.8 °F 35.1 °F 41.0 °F 93% 29.78 in 4.0 mi ESE 16.1 mph - 0.06 in Rain Light Rain
1:53 AM 43.0 °F 36.0 °F 41.0 °F 93% 29.77 in 5.0 mi SE 13.8 mph - 0.11 in Rain Light Rain
2:53 AM 44.1 °F 37.4 °F 42.1 °F 93% 29.69 in 9.0 mi ESE 13.8 mph - 0.04 in Rain Light Rain
3:32 AM 44.6 °F 37.2 °F 42.8 °F 93% 29.64 in 6.0 mi SSE 17.3 mph - 0.04 in Rain Light Rain
3:53 AM 45.0 °F 43.5 °F 44.1 °F 97% 29.70 in 10.0 mi Variable 3.5 mph - 0.05 in Rain Light Rain
4:53 AM 45.0 °F 43.5 °F 45.0 °F 100% 29.67 in 8.0 mi North 3.5 mph - 0.01 in Rain Light Rain
5:53 AM 46.0 °F 43.1 °F 45.0 °F 96% 29.57 in 5.0 mi ENE 5.8 mph - 0.02 in Rain Light Rain
6:43 AM 44.6 °F 39.7 °F 44.6 °F 100% 29.62 in 2.0 mi North 9.2 mph - 0.02 in Rain Light Rain
6:53 AM 45.0 °F 40.1 °F 44.1 °F 97% 29.64 in 2.0 mi North 9.2 mph - 0.04 in Rain Rain
7:21 AM 44.6 °F 40.2 °F 44.6 °F 100% 29.59 in 2.0 mi NNE 8.1 mph - 0.07 in Rain Light Rain
7:32 AM 44.6 °F 43.1 °F 44.6 °F 100% 29.61 in 2.5 mi North 3.5 mph - 0.08 in Rain Light Rain
7:34 AM 44.6 °F - 44.6 °F 100% 29.61 in 2.5 mi Calm Calm - 0.08 in Rain Light Rain
7:53 AM 45.0 °F 42.6 °F 44.1 °F 97% 29.62 in 2.5 mi North 4.6 mph - 0.10 in Rain Light Rain
8:38 AM 44.6 °F 41.4 °F 42.8 °F 93% 29.61 in 3.0 mi North 5.8 mph - 0.04 in Rain Light Rain
8:53 AM 43.0 °F 38.8 °F 42.1 °F 97% 29.62 in 3.0 mi North 6.9 mph - 0.05 in Rain Light Rain
9:53 AM 43.0 °F 38.8 °F 41.0 °F 93% 29.62 in 10.0 mi North 6.9 mph - 0.00 in   Overcast
10:53 AM 45.0 °F 41.8 °F 43.0 °F 93% 29.57 in 9.0 mi NE 5.8 mph - N/A   Overcast
11:53 AM 46.0 °F - 44.1 °F 93% 29.59 in 9.0 mi Calm Calm - N/A   Overcast
12:11 PM 46.4 °F 44.3 °F 44.6 °F 93% 29.54 in 8.0 mi ESE 4.6 mph - N/A   Overcast
12:53 PM 48.0 °F - 46.0 °F 93% 29.51 in 7.0 mi NE 6.9 mph - N/A   Overcast
1:53 PM 48.9 °F - 46.9 °F 93% 29.51 in 8.0 mi ENE 6.9 mph - N/A   Overcast
2:53 PM 50.0 °F - 48.0 °F 93% 29.49 in 5.0 mi East 8.1 mph - N/A   Overcast
3:24 PM 50.0 °F - 48.2 °F 94% 29.48 in 2.5 mi East 6.9 mph - N/A   Overcast
3:44 PM 50.0 °F - 48.2 °F 94% 29.45 in 1.0 mi East 6.9 mph - 0.00 in   Light Drizzle
3:53 PM 50.0 °F - 48.9 °F 96% 29.42 in 1.0 mi East 9.2 mph - 0.00 in   Light Drizzle
4:53 PM 52.0 °F - 51.1 °F 97% 29.39 in 0.8 mi SE 9.2 mph - 0.03 in   Overcast
5:36 PM 55.4 °F - 53.6 °F 94% 29.35 in 1.0 mi SE 10.4 mph - 0.01 in Rain Light Rain
5:53 PM 57.9 °F - 55.9 °F 93% 29.34 in 1.0 mi SSE 17.3 mph 23.0 mph 0.02 in Rain Light Rain
6:27 PM 59.0 °F - 55.4 °F 88% 29.33 in 3.0 mi South 19.6 mph 27.6 mph 0.03 in Rain Light Rain
6:34 PM 59.0 °F - 55.4 °F 88% 29.32 in 9.0 mi South 15.0 mph 26.5 mph 0.04 in   Overcast
6:53 PM 57.9 °F - 55.0 °F 90% 29.34 in 10.0 mi South 13.8 mph 21.9 mph 0.04 in   Overcast
7:53 PM 48.0 °F - 44.1 °F 86% 29.39 in 10.0 mi SW 18.4 mph 31.1 mph 0.00 in   Overcast
8:53 PM 44.1 °F 36.8 °F 39.0 °F 82% 29.44 in 10.0 mi SW 16.1 mph 25.3 mph N/A   Overcast
9:53 PM 41.0 °F 32.8 °F 35.1 °F 79% 29.45 in 10.0 mi SW 16.1 mph 28.8 mph N/A   Overcast
10:53 PM 39.0 °F 31.4 °F 33.1 °F 79% 29.44 in 10.0 mi SW 12.7 mph 25.3 mph N/A   Overcast
11:53 PM 37.9 °F 28.9 °F 32.0 °F 79% 29.42 in 10.0 mi SW 16.1 mph 25.3 mph N/A   Overcast